When you browse on this site, cookies collect data to enhance your experience and personalize the content and advertising you see.
Visit our Privacy Policy to learn more. By continuing to use the site, you agree to this use of cookies and data.
  • In United Kingdom
  • List of Countries
  • For 7 days
  • Water Temperature
  • Satellite Maps
  • Weather Map
  • Weather Widgets
  • user-avatar
    Login

    Hourly Weather Baraki Barak

    Today, 24 March, Sunday

    Time Temperature Precipitation Wind Pressure Humidity
    00:00 +3°C° 0 mm 1 mps 596 mmHg 76%
    01:00 +2°C° 0 mm 1 mps 596 mmHg 74%
    02:00 +2°C° 0 mm 1 mps 596 mmHg 72%
    03:00 +2°C° 0 mm 1 mps 596 mmHg 71%
    04:00 +2°C° 0 mm 1 mps 596 mmHg 69%
    05:00 +1°C° 0 mm 1 mps 595 mmHg 72%
    06:00 +1°C° 0 mm 1 mps 595 mmHg 71%
    07:00 +2°C° 0 mm 1 mps 596 mmHg 69%
    08:00 +2°C° 0 mm 1 mps 596 mmHg 68%
    09:00 +3°C° 0 mm 1 mps 596 mmHg 70%
    10:00 +5°C° 0 mm 1 mps 596 mmHg 72%
    11:00 +5°C° 0 mm 0 mps 596 mmHg 73%
    12:00 +7°C° 0 mm 1 mps 596 mmHg 72%
    13:00 +8°C° 0 mm 1 mps 597 mmHg 71%
    14:00 +8°C° 0 mm 1 mps 597 mmHg 69%
    15:00 +8°C° 0 mm 1 mps 596 mmHg 66%
    16:00 +8°C° 0 mm 1 mps 596 mmHg 62%
    17:00 +8°C° 0 mm 1 mps 596 mmHg 59%
    18:00 +6°C° 0 mm 0 mps 596 mmHg 61%
    19:00 +5°C° 0 mm 0 mps 596 mmHg 64%
    20:00 +3°C° 0 mm 0 mps 595 mmHg 66%
    21:00 +4°C° 0 mm 1 mps 596 mmHg 66%
    22:00 +4°C° 0 mm 1 mps 596 mmHg 65%
    23:00 +3°C° 0 mm 1 mps 596 mmHg 65%

    Tomorrow, 25 March, Monday

    Time Temperature Precipitation Wind Pressure Humidity
    00:00 +3°C° 0 mm 1 mps 596 mmHg 64%
    01:00 +3°C° 0 mm 1 mps 596 mmHg 63%
    02:00 +2°C° 0 mm 1 mps 596 mmHg 63%
    03:00 +2°C° 0 mm 1 mps 595 mmHg 62%
    04:00 +2°C° 0 mm 1 mps 595 mmHg 61%
    05:00 +1°C° 0 mm 1 mps 595 mmHg 60%
    06:00 +2°C° 0 mm 1 mps 596 mmHg 58%
    07:00 +2°C° 0 mm 1 mps 596 mmHg 55%
    08:00 +3°C° 0 mm 1 mps 597 mmHg 52%
    09:00 +4°C° 0 mm 1 mps 597 mmHg 53%
    10:00 +6°C° 0 mm 1 mps 597 mmHg 54%
    11:00 +7°C° 0 mm 1 mps 598 mmHg 55%
    12:00 +8°C° 0 mm 1 mps 598 mmHg 54%
    13:00 +9°C° 0 mm 1 mps 598 mmHg 53%
    14:00 +10°C° 0 mm 1 mps 598 mmHg 52%
    15:00 +10°C° 0 mm 1 mps 598 mmHg 49%
    16:00 +10°C° 0 mm 1 mps 598 mmHg 45%
    17:00 +10°C° 0 mm 1 mps 597 mmHg 42%
    18:00 +8°C° 0 mm 1 mps 597 mmHg 43%
    19:00 +7°C° 0 mm 1 mps 597 mmHg 44%
    20:00 +6°C° 0 mm 1 mps 597 mmHg 45%
    21:00 +5°C° 0 mm 1 mps 597 mmHg 45%
    22:00 +4°C° 0 mm 2 mps 597 mmHg 45%
    23:00 +3°C° 0 mm 2 mps 597 mmHg 45%

    Day after tomorrow, 26 March, Tuesday

    Time Temperature Precipitation Wind Pressure Humidity
    00:00 +3°C° 0 mm 2 mps 597 mmHg 45%
    01:00 +3°C° 0 mm 2 mps 597 mmHg 45%
    02:00 +2°C° 0 mm 2 mps 596 mmHg 46%
    03:00 +2°C° 0 mm 2 mps 596 mmHg 45%
    04:00 +2°C° 0 mm 2 mps 596 mmHg 44%
    05:00 +2°C° 0 mm 2 mps 596 mmHg 44%
    06:00 +3°C° 0 mm 2 mps 596 mmHg 42%
    07:00 +3°C° 0 mm 2 mps 597 mmHg 40%
    08:00 +4°C° 0 mm 2 mps 597 mmHg 39%
    09:00 +6°C° 0 mm 2 mps 598 mmHg 41%
    10:00 +9°C° 0 mm 1 mps 598 mmHg 43%
    11:00 +10°C° 0 mm 1 mps 599 mmHg 45%
    12:00 +10°C° 0 mm 2 mps 599 mmHg 44%
    13:00 +12°C° 0 mm 2 mps 599 mmHg 43%
    14:00 +13°C° 0 mm 2 mps 599 mmHg 42%
    15:00 +13°C° 0 mm 2 mps 599 mmHg 42%
    16:00 +13°C° 0 mm 2 mps 599 mmHg 41%
    17:00 +13°C° 0 mm 2 mps 599 mmHg 41%
    18:00 +12°C° 0 mm 2 mps 599 mmHg 44%
    19:00 +10°C° 0 mm 2 mps 599 mmHg 46%
    20:00 +9°C° 0 mm 2 mps 599 mmHg 49%
    21:00 +8°C° 0 mm 2 mps 599 mmHg 49%
    22:00 +8°C° 0 mm 2 mps 599 mmHg 50%
    23:00 +8°C° 0 mm 1 mps 599 mmHg 50%

    27 March, Wednesday

    Time Temperature Precipitation Wind Pressure Humidity
    00:00 +8°C° 0 mm 1 mps 598 mmHg 51%
    01:00 +8°C° 0 mm 1 mps 598 mmHg 53%
    02:00 +7°C° 0 mm 1 mps 598 mmHg 55%
    03:00 +7°C° 0 mm 1 mps 597 mmHg 57%
    04:00 +7°C° 0 mm 1 mps 597 mmHg 59%
    05:00 +7°C° 0 mm 1 mps 597 mmHg 62%
    06:00 +7°C° 0 mm 1 mps 598 mmHg 62%
    07:00 +8°C° 0 mm 1 mps 598 mmHg 62%
    08:00 +9°C° 0 mm 1 mps 599 mmHg 62%
    09:00 +10°C° 0 mm 1 mps 599 mmHg 60%
    10:00 +12°C° 0 mm 1 mps 600 mmHg 58%
    11:00 +13°C° 0 mm 1 mps 600 mmHg 56%
    12:00 +14°C° 0 mm 1 mps 600 mmHg 55%
    13:00 +15°C° 0 mm 2 mps 600 mmHg 55%
    14:00 +15°C° 0 mm 2 mps 600 mmHg 54%
    15:00 +15°C° 0 mm 2 mps 600 mmHg 55%
    16:00 +15°C° 0 mm 2 mps 600 mmHg 56%
    17:00 +15°C° 0 mm 2 mps 600 mmHg 58%
    18:00 +14°C° 0 mm 1 mps 600 mmHg 62%
    19:00 +13°C° 0 mm 1 mps 600 mmHg 66%
    20:00 +12°C° 0 mm 1 mps 600 mmHg 70%
    21:00 +11°C° 0 mm 1 mps 599 mmHg 71%
    22:00 +11°C° 0 mm 1 mps 599 mmHg 73%
    23:00 +10°C° 0 mm 1 mps 599 mmHg 74%

    28 March, Thursday

    Time Temperature Precipitation Wind Pressure Humidity
    00:00 +10°C° 0.1 mm 1 mps 599 mmHg 75%
    01:00 +10°C° 0.1 mm 1 mps 598 mmHg 76%
    02:00 +9°C° 0.1 mm 1 mps 598 mmHg 76%
    03:00 +9°C° 0 mm 1 mps 598 mmHg 79%
    04:00 +8°C° 0 mm 1 mps 597 mmHg 81%
    05:00 +8°C° 0 mm 1 mps 597 mmHg 83%
    06:00 +8°C° 0 mm 1 mps 598 mmHg 81%
    07:00 +9°C° 0 mm 1 mps 599 mmHg 78%
    08:00 +9°C° 0 mm 0 mps 599 mmHg 76%
    09:00 +11°C° 0 mm 1 mps 600 mmHg 72%
    10:00 +12°C° 0 mm 1 mps 600 mmHg 67%
    11:00 +13°C° 0 mm 1 mps 601 mmHg 63%
    12:00 +14°C° 0 mm 2 mps 601 mmHg 58%
    13:00 +15°C° 0 mm 2 mps 600 mmHg 53%
    14:00 +16°C° 0 mm 2 mps 600 mmHg 48%
    15:00 +16°C° 0 mm 2 mps 600 mmHg 47%
    16:00 +16°C° 0 mm 2 mps 600 mmHg 45%
    17:00 +16°C° 0 mm 2 mps 599 mmHg 44%
    18:00 +15°C° 0 mm 1 mps 599 mmHg 48%
    19:00 +14°C° 0 mm 1 mps 599 mmHg 53%
    20:00 +12°C° 0 mm 1 mps 599 mmHg 57%
    21:00 +12°C° 0 mm 1 mps 599 mmHg 57%
    22:00 +12°C° 0 mm 1 mps 599 mmHg 58%
    23:00 +11°C° 0 mm 1 mps 598 mmHg 58%

    29 March, Friday

    Time Temperature Precipitation Wind Pressure Humidity
    00:00 +11°C° 0 mm 1 mps 598 mmHg 58%
    01:00 +11°C° 0 mm 1 mps 598 mmHg 59%
    02:00 +11°C° 0 mm 1 mps 597 mmHg 59%
    03:00 +10°C° 0.3 mm 1 mps 597 mmHg 63%
    04:00 +10°C° 0.3 mm 1 mps 597 mmHg 66%
    05:00 +9°C° 0.3 mm 1 mps 597 mmHg 69%
    06:00 +9°C° 0.4 mm 1 mps 597 mmHg 69%
    07:00 +9°C° 0.4 mm 1 mps 597 mmHg 69%
    08:00 +9°C° 0.4 mm 1 mps 598 mmHg 69%
    09:00 +10°C° 0.1 mm 1 mps 598 mmHg 64%
    10:00 +11°C° 0.1 mm 1 mps 598 mmHg 60%
    11:00 +12°C° 0.1 mm 1 mps 599 mmHg 55%
    12:00 +13°C° 0 mm 1 mps 598 mmHg 53%
    13:00 +13°C° 0 mm 1 mps 598 mmHg 51%
    14:00 +14°C° 0 mm 1 mps 598 mmHg 49%
    15:00 +14°C° 0.5 mm 2 mps 598 mmHg 52%
    16:00 +14°C° 0.5 mm 2 mps 598 mmHg 55%
    17:00 +13°C° 0.5 mm 2 mps 597 mmHg 58%
    18:00 +11°C° 0.5 mm 3 mps 597 mmHg 63%
    19:00 +11°C° 0.5 mm 3 mps 597 mmHg 68%
    20:00 +10°C° 0.5 mm 3 mps 597 mmHg 73%
    21:00 +9°C° 0 mm 3 mps 597 mmHg 75%
    22:00 +9°C° 0 mm 2 mps 597 mmHg 77%
    23:00 +8°C° 0 mm 2 mps 597 mmHg 79%
    Show more